[[{"header":{"parameterUnit":"m.s-1","parameterCategory":1,"la1":30.2991,"la2":30.254,"lo1":-89.0895,"lo2":-89.0444,"dy":0.0017,"dx":0.0017,"nx":28,"ny":28,"refTime":"2024-07-15T09:00:00:Z","depth":0,"parameterNumber":2,"parameterNumberName":"U-component_of_WINDS"},"data":[0,0,0,0,0,0,0,0,0,0,0,0,0,0,0,0,0,0,0,0,0,0,0,0,0,0,0,0,0,0,0,0,0,0,0,0,0,0,0,0,0,0,0,0,0,0,0,0,0,0,0,0,0,0,0,0,0,0,1.1957,1.1958,0,1.2058,1.2059,1.206,1.211,1.211,1.211,1.211,1.2212,1.2215,1.2218,0,0,0,0,0,0,0,0,0,0,0,0,0,1.1805,1.1808,1.1957,1.1958,1.196,1.2058,1.2059,1.2061,1.211,1.211,1.211,1.211,1.2211,1.2215,1.2218,0,0,0,0,0,0,0,0,0,0,0,0,0,1.1885,1.1808,1.1957,1.1996,1.2,1.2058,1.2059,1.2061,1.211,1.211,1.211,1.211,1.221,1.2214,1.2218,1.2244,0,0,1.2231,1.2233,0,0,0,0,0,0,0,0,1.188,1.1891,1.1989,1.1993,1.1998,1.2071,1.2044,1.2123,1.211,1.2068,1.211,1.211,1.2165,1.2173,1.2192,1.2249,1.2254,1.2231,1.2234,1.2236,1.2237,0,0,0,0,0,0,0,1.1875,1.1886,1.1997,1.199,1.1996,1.2008,1.2019,1.2059,1.2116,1.2072,1.2076,1.2087,1.2168,1.2188,1.2195,1.2255,1.2231,1.2235,1.2238,1.2239,1.2338,1.2338,0,0,0,0,0,0,1.1863,1.1882,1.1994,1.2,1.1938,1.2011,1.2023,1.2048,1.2115,1.2126,1.2087,1.2089,1.2181,1.219,1.2199,1.2233,1.2236,1.224,1.2242,1.2338,1.2338,1.2338,0,0,0,0,0,0,1.186,1.1873,1.199,1.1942,1.1958,1.2013,1.204,1.205,1.207,1.2127,1.2137,1.2097,1.2181,1.2193,1.2233,1.2238,1.2241,1.2245,1.2337,1.2338,1.2338,1.2303,0,0,0,0,0,0,1.1855,1.1871,1.1882,1.1942,1.196,1.2022,1.2041,1.2052,1.2077,1.2081,1.2139,1.2149,1.2182,1.2226,1.2237,1.2243,1.2248,1.2337,1.2338,1.2338,1.2304,1.2302,1.23,0,0,0,0,0,1.185,1.1868,1.1882,1.1896,1.1975,1.2022,1.2033,1.2071,1.2077,1.2088,1.2125,1.2147,1.2235,1.223,1.2242,1.225,1.2337,1.2337,1.2338,1.2304,1.2302,1.23,0,0,0,0,0,0,1.1807,1.1877,1.1893,1.1932,1.1971,1.2031,1.2046,1.2068,1.2106,1.2107,1.2153,1.2166,1.2201,1.223,1.2222,1.2278,1.2288,1.2291,1.2259,1.2257,1.2255,1.2248,1.2252,0,0,0,0,0,1.1802,1.1835,1.1894,1.1922,1.1941,1.199,1.2012,1.2038,1.2081,1.2097,1.2137,1.2176,1.2213,1.2237,1.2274,1.2308,1.2321,1.2319,1.2317,1.2315,1.2317,1.2337,1.2337,1.2339,1.2339,1.2339,0,0,1.1792,1.1834,1.1853,1.1915,1.1948,1.1981,1.2004,1.2038,1.2062,1.2103,1.2142,1.2172,1.222,1.2257,1.2275,1.2281,1.232,1.2316,1.2314,1.2317,1.2337,1.2337,1.2337,1.2339,1.2339,1.2339,0,0,1.1792,1.1827,1.1854,1.1887,1.1937,1.197,1.1976,1.2032,1.2054,1.2095,1.2125,1.2155,1.2218,1.225,1.2275,1.2285,1.2307,1.2296,1.2286,1.2305,1.2305,1.2305,1.2308,1.2309,1.2297,1.2297,1.2297,0,1.1773,1.1824,1.1865,1.1898,1.1924,1.1962,1.1989,1.2019,1.2078,1.2095,1.2102,1.2181,1.2215,1.226,1.2262,1.2281,1.229,1.229,1.2302,1.2302,1.2303,1.2307,1.2308,1.2296,1.2296,1.2296,1.2296,0,1.1799,1.1834,1.185,1.1907,1.1935,1.1964,1.2009,1.2032,1.2056,1.2087,1.2127,1.217,1.2216,1.2229,1.2252,1.2277,1.2279,1.2293,1.2304,1.23,1.2305,1.2306,1.2293,1.2294,1.2294,1.2295,0,0,1.1775,1.1853,1.1859,1.1885,1.1943,1.197,1.2001,1.2046,1.2065,1.2105,1.2132,1.2183,1.2196,1.2224,1.2251,1.2267,1.2272,1.2279,1.2281,1.2276,1.2302,1.2291,1.2292,1.2287,1.2287,1.2288,1.2298,0,1.1782,1.184,1.1877,1.192,1.1953,1.1989,1.2016,1.2054,1.2083,1.2115,1.2148,1.2184,1.2198,1.2215,1.2233,1.2268,1.2278,1.2268,1.2312,1.2313,1.2299,1.2295,1.2284,1.2291,1.23,1.23,1.23,0,1.1799,1.1837,1.1884,1.1938,1.1953,1.1976,1.202,1.205,1.2094,1.2114,1.2145,1.2172,1.2206,1.2213,1.226,1.2252,1.2272,1.2292,1.2293,1.2299,1.2307,1.23,1.2294,1.2295,1.2303,1.2303,1.2303,0,1.1776,1.184,1.1876,1.1897,1.1961,1.1976,1.2004,1.2047,1.2072,1.211,1.2126,1.2168,1.219,1.2222,1.2259,1.2261,1.2302,1.2313,1.232,1.2318,1.2327,1.2326,1.2324,1.2339,1.2339,1.2339,1.2339,0,1.1781,1.1807,1.1867,1.1889,1.1919,1.1962,1.1991,1.2021,1.2059,1.2087,1.212,1.2146,1.2194,1.2225,1.2254,1.2288,1.2298,1.2315,1.2323,1.2313,1.231,1.2327,1.2327,1.234,1.234,1.234,1.2339,0,1.1761,1.1802,1.1843,1.19,1.1915,1.1935,1.1984,1.2006,1.2037,1.2072,1.2083,1.2132,1.217,1.221,1.2262,1.2282,1.2315,1.2325,1.23,1.2304,1.2309,1.2308,1.2318,1.2321,1.2333,1.2333,1.2333,0,1.1761,1.1783,1.1842,1.1863,1.189,1.1924,1.1949,1.1991,1.2016,1.2066,1.2082,1.2123,1.2158,1.2217,1.2257,1.2297,1.2309,1.231,1.2315,1.2304,1.2309,1.2307,1.2309,1.2308,1.2307,1.2307,1.2307,0,1.1757,1.1776,1.1812,1.1854,1.1883,1.1918,1.1955,1.197,1.2019,1.2045,1.2085,1.2112,1.2164,1.2204,1.2249,1.2276,1.2299,1.2305,1.2308,1.2298,1.2283,1.2291,1.2295,1.2304,1.2305,1.2305,1.2305,1.2305,1.1748,1.1769,1.1813,1.1852,1.1883,1.1916,1.194,1.1974,1.2008,1.2055,1.2077,1.2116,1.2159,1.2221,1.2247,1.2279,1.2285,1.2291,1.2292,1.2293,1.229,1.2277,1.2287,1.2287,1.2287,1.2287,1.2287,0,1.1746,1.1776,1.1811,1.1861,1.189,1.191,1.1951,1.1974,1.2009,1.2046,1.208,1.2125,1.2163,1.2206,1.2247,1.2264,1.2275,1.2273,1.2272,1.2278,1.2282,1.2274,1.2263,1.2263,1.2263,1.2263,1.2263,1.2263,1.1748,1.1784,1.1808,1.186,1.189,1.1929,1.1951,1.1981,1.2011,1.206,1.2093,1.212,1.216,1.2204,1.224,1.2251,1.2265,1.2259,1.2274,1.2276,1.2278,1.228,1.2273,1.2262,1.2262,1.2268,1.2268,1.2268]},{"header":{"parameterUnit":"m.s-1","parameterCategory":1,"la1":30.2991,"la2":30.254,"lo1":-89.0895,"lo2":-89.0444,"dy":0.0017,"dx":0.0017,"nx":28,"ny":28,"refTime":"2024-07-15T09:00:00:Z","depth":0,"parameterNumber":3,"parameterNumberName":"V-component_of_WINDS"},"data":[0,0,0,0,0,0,0,0,0,0,0,0,0,0,0,0,0,0,0,0,0,0,0,0,0,0,0,0,0,0,0,0,0,0,0,0,0,0,0,0,0,0,0,0,0,0,0,0,0,0,0,0,0,0,0,0,0,0,4.3011,4.301,0,4.2977,4.2977,4.2976,4.2965,4.2965,4.2966,4.2966,4.2926,4.2924,4.2923,0,0,0,0,0,0,0,0,0,0,0,0,0,4.3061,4.306,4.3011,4.301,4.301,4.2977,4.2977,4.2976,4.2965,4.2965,4.2966,4.2966,4.2926,4.2925,4.2923,0,0,0,0,0,0,0,0,0,0,0,0,0,4.3034,4.306,4.3011,4.3001,4.2999,4.2977,4.2977,4.2976,4.2965,4.2965,4.2966,4.2966,4.2926,4.2925,4.2923,4.2907,0,0,4.2917,4.2917,0,0,0,0,0,0,0,0,4.3036,4.3032,4.3003,4.3001,4.3,4.2976,4.298,4.2953,4.2965,4.2978,4.2966,4.2966,4.2942,4.2939,4.2932,4.2905,4.2903,4.2917,4.2916,4.2915,4.2915,0,0,0,0,0,0,0,4.3037,4.3034,4.2997,4.3002,4.3,4.2996,4.2993,4.2974,4.2959,4.2977,4.2976,4.2973,4.2941,4.2933,4.2931,4.2902,4.2917,4.2916,4.2914,4.2914,4.286,4.286,0,0,0,0,0,0,4.3042,4.3035,4.2998,4.2996,4.3019,4.2995,4.2991,4.2983,4.2959,4.2956,4.2972,4.2972,4.2936,4.2933,4.2929,4.2909,4.2915,4.2914,4.2912,4.2861,4.286,4.286,0,0,0,0,0,0,4.3043,4.3039,4.3,4.3015,4.301,4.2994,4.2985,4.2982,4.2975,4.2956,4.2952,4.2968,4.2936,4.2932,4.2913,4.2907,4.2913,4.2911,4.2861,4.286,4.286,4.2867,0,0,0,0,0,0,4.3044,4.3039,4.3034,4.3016,4.3009,4.2985,4.2985,4.2981,4.2972,4.2972,4.295,4.2947,4.2936,4.2916,4.2911,4.2905,4.291,4.2861,4.2861,4.286,4.2867,4.2867,4.2867,0,0,0,0,0,4.3046,4.3036,4.3034,4.3029,4.3003,4.2985,4.2981,4.2971,4.2972,4.2966,4.2954,4.2948,4.2909,4.2914,4.2908,4.2901,4.2862,4.2861,4.286,4.2868,4.2867,4.2867,0,0,0,0,0,0,4.3052,4.3033,4.3031,4.3014,4.3002,4.2983,4.2975,4.2971,4.2956,4.2956,4.2942,4.2937,4.2919,4.2908,4.2914,4.2884,4.2885,4.2883,4.2892,4.2891,4.2891,4.2894,4.2908,0,0,0,0,0,4.3052,4.304,4.3024,4.3011,4.3005,4.2992,4.2983,4.2977,4.2962,4.2956,4.2942,4.2927,4.2911,4.29,4.2885,4.2866,4.2861,4.2858,4.2858,4.2858,4.2856,4.2845,4.2844,4.2857,4.2857,4.2857,0,0,4.305,4.3039,4.3032,4.3012,4.3002,4.2989,4.2987,4.2973,4.2963,4.2953,4.2935,4.2924,4.2906,4.2887,4.2878,4.2878,4.2852,4.2857,4.2857,4.2855,4.2844,4.2843,4.2842,4.2857,4.2857,4.2857,0,0,4.3041,4.3032,4.3021,4.301,4.2995,4.2986,4.2983,4.2966,4.2959,4.2941,4.2933,4.292,4.2893,4.2881,4.2871,4.2858,4.2852,4.2853,4.2851,4.284,4.2839,4.2838,4.2833,4.2832,4.2851,4.2851,4.2851,0,4.3041,4.3024,4.3015,4.3002,4.2993,4.2986,4.2973,4.2963,4.2942,4.2936,4.2936,4.2903,4.289,4.2868,4.2865,4.2857,4.2853,4.2855,4.2841,4.2839,4.2838,4.2834,4.2832,4.2852,4.2852,4.2852,4.2852,0,4.3024,4.3012,4.3004,4.2987,4.2977,4.2964,4.2952,4.2943,4.2937,4.2928,4.2909,4.2893,4.2875,4.2869,4.2862,4.2846,4.2846,4.2844,4.2844,4.2838,4.2833,4.2831,4.2852,4.2852,4.2852,4.2852,0,0,4.3017,4.2996,4.2993,4.2986,4.2968,4.2958,4.2944,4.2928,4.292,4.2906,4.2894,4.2872,4.287,4.2859,4.285,4.2841,4.2832,4.284,4.2839,4.2839,4.2813,4.2815,4.2813,4.2828,4.2828,4.2827,4.2814,0,4.3006,4.2984,4.2976,4.2957,4.2945,4.2938,4.2926,4.2914,4.2904,4.2892,4.2881,4.2865,4.2864,4.2857,4.2848,4.2835,4.2826,4.2836,4.2815,4.2814,4.282,4.281,4.2812,4.28,4.2812,4.2812,4.2812,0,4.299,4.2978,4.2959,4.2944,4.2938,4.2928,4.2913,4.2901,4.2886,4.288,4.2868,4.2861,4.2845,4.2846,4.2824,4.2831,4.2821,4.2814,4.2813,4.281,4.2813,4.2807,4.2796,4.2795,4.2809,4.2809,4.2809,0,4.2987,4.2966,4.2952,4.2945,4.2927,4.292,4.2912,4.2898,4.2888,4.2874,4.2868,4.2851,4.2842,4.2828,4.2816,4.2818,4.2795,4.2795,4.2788,4.2788,4.2783,4.2783,4.2771,4.2777,4.2777,4.2777,4.2777,0,4.2975,4.2964,4.2951,4.2942,4.2928,4.2919,4.2905,4.2896,4.2883,4.2871,4.2863,4.2852,4.2837,4.2823,4.2813,4.2796,4.2791,4.2785,4.2782,4.2786,4.2787,4.2779,4.278,4.2777,4.2777,4.2777,4.2777,0,4.297,4.2961,4.2945,4.2929,4.2925,4.2916,4.2902,4.2892,4.2883,4.2868,4.2864,4.2849,4.2833,4.282,4.2797,4.2791,4.2772,4.2769,4.2778,4.2777,4.277,4.2771,4.2752,4.2749,4.2759,4.2758,4.2758,0,4.2963,4.2954,4.2939,4.2931,4.2924,4.2911,4.2903,4.2892,4.2883,4.2866,4.2858,4.2842,4.2828,4.2802,4.2787,4.277,4.2767,4.2761,4.2764,4.2768,4.2766,4.2767,4.2766,4.2761,4.2761,4.2761,4.2761,0,4.2952,4.2948,4.2937,4.2924,4.2914,4.2903,4.2891,4.2885,4.2872,4.2862,4.2846,4.2836,4.2814,4.2797,4.2779,4.2768,4.2762,4.276,4.2758,4.2761,4.2766,4.2763,4.2777,4.2761,4.2761,4.2761,4.2761,4.2761,4.2945,4.2937,4.2925,4.2913,4.2903,4.2893,4.2884,4.2874,4.2861,4.2845,4.2839,4.2822,4.2807,4.2782,4.2772,4.2758,4.2757,4.2753,4.2752,4.2751,4.2752,4.2769,4.2754,4.2754,4.2754,4.2754,4.2754,0,4.2933,4.2926,4.2914,4.29,4.289,4.2887,4.2874,4.2865,4.2852,4.2839,4.2826,4.2808,4.2792,4.2777,4.276,4.2751,4.2748,4.2747,4.2747,4.2745,4.2753,4.2757,4.275,4.275,4.275,4.275,4.275,4.275,4.2926,4.2913,4.2908,4.2889,4.2881,4.2866,4.2859,4.2849,4.2839,4.282,4.2807,4.2799,4.2784,4.2766,4.2751,4.2747,4.2741,4.2741,4.2736,4.2744,4.2744,4.2745,4.2749,4.274,4.2739,4.2728,4.2728,4.2728]}]]